Weather History for Sidney, NE

Change the Weather History Date:

Wednesday, September 18, 2013

  Actual Average Record
Temperature  
Mean Temperature 74 °F 62 °F  
Max Temperature 91 °F 78 °F 93 °F (1948)
Min Temperature 56 °F 47 °F 30 °F (1949)
Degree Days  
Heating Degree Days 0 5  
Month to date heating degree days 17 44  
Since 1 July heating degree days 26 55  
Cooling Degree Days 9 2  
Month to date cooling degree days 146 69  
Year to date cooling degree days 909 811  
Growing Degree Days 22 (Base 50)    
Moisture  
Dew Point 51 °F    
Average Humidity 54    
Maximum Humidity 86    
Minimum Humidity 22    
Precipitation  
Precipitation 0.10 in 0.03 in 1.05 in (1990)
Month to date precipitation 3.27 0.84  
Year to date precipitation 11.44 16.00  
Sea Level Pressure  
Sea Level Pressure 29.69 in    
Wind  
Wind Speed 9 mph (West)    
Max Wind Speed 40 mph    
Max Gust Speed 49 mph    
Visibility 10 miles    
Events Rain , Thunderstorm    
T = Trace of Precipitation, MM = Missing Value Source: NWS Daily Summary

Daily Weather History Graph

Daily Weather History Graph

Search for Another Location

Airport:

Trip Planner

Search our weather history database for the weather conditions in past years. The results will help you decide how hot, cold, wet, or windy it might be!

Date:

Astronomy

Sep. 18, 2013 Rise Set
Actual Time 6:35 AM MDT 6:55 PM MDT
Civil Twilight 6:08 AM MDT 7:22 PM MDT
Nautical Twilight 5:35 AM MDT 7:55 PM MDT
Astronomical Twilight 5:02 AM MDT 8:28 PM MDT
Moon 6:19 PM MDT (9/18) 5:40 AM MDT (9/18)
Length of Visible Light 13h 14m
Length of Day
12h 19m
Waxing Gibbous, 99% of the Moon is Illuminated
Sep 18
Waxing Gibbous
Sep 19
Full
Sep 26
Last Quarter
Oct 4
New
Oct 11
First Quarter

Hourly Weather History & Observations

Time (MDT) Temp. Dew Point Humidity Pressure Visibility Wind Dir Wind Speed Gust Speed Precip Events Conditions
12:53 AM 62.1 °F 55.9 °F 80% 29.67 in 10.0 mi SSW 10.4 mph - N/A   Clear
1:53 AM 61.0 °F 54.0 °F 78% 29.66 in 10.0 mi SSW 8.1 mph - N/A   Clear
2:53 AM 57.9 °F 53.1 °F 84% 29.66 in 10.0 mi WSW 5.8 mph - N/A   Clear
3:53 AM 57.0 °F 52.0 °F 83% 29.65 in 10.0 mi WSW 4.6 mph - N/A   Clear
4:53 AM 55.9 °F 52.0 °F 87% 29.64 in 10.0 mi WSW 8.1 mph - N/A   Clear
5:53 AM 57.9 °F 53.1 °F 84% 29.64 in 10.0 mi SW 8.1 mph - 0.00 in   Partly Cloudy
6:53 AM 57.0 °F 53.1 °F 87% 29.70 in 10.0 mi WNW 8.1 mph - N/A   Clear
7:53 AM 64.0 °F 54.0 °F 70% 29.70 in 10.0 mi West 9.2 mph - N/A   Clear
8:53 AM 70.0 °F 54.0 °F 57% 29.68 in 10.0 mi NW 4.6 mph - N/A   Clear
9:53 AM 81.0 °F 51.1 °F 35% 29.66 in 10.0 mi WNW 11.5 mph - N/A   Clear
10:53 AM 86.0 °F 50.0 °F 29% 29.65 in 10.0 mi West 15.0 mph - N/A   Clear
11:53 AM 88.0 °F 46.0 °F 23% 29.65 in 10.0 mi WNW 15.0 mph 24.2 mph N/A   Clear
12:53 PM 86.0 °F 45.0 °F 24% 29.65 in 10.0 mi WNW 13.8 mph 28.8 mph N/A   Clear
1:53 PM 87.1 °F 45.0 °F 23% 29.64 in 10.0 mi WNW 10.4 mph 20.7 mph N/A   Clear
2:53 PM 88.0 °F 45.0 °F 22% 29.64 in 10.0 mi NW 11.5 mph - N/A   Clear
3:53 PM 88.0 °F 45.0 °F 22% 29.63 in 10.0 mi NW 10.4 mph - N/A   Clear
4:53 PM 84.9 °F 46.0 °F 26% 29.65 in 10.0 mi NNW 13.8 mph - N/A   Clear
5:53 PM 78.1 °F 52.0 °F 40% 29.65 in 10.0 mi NNW 5.8 mph - N/A   Clear
6:53 PM 75.0 °F 51.1 °F 43% 29.67 in 10.0 mi NW 13.8 mph - N/A   Scattered Clouds
7:02 PM 73.4 °F 50.0 °F 44% 29.86 in 8.0 mi West 40.3 mph 49.5 mph N/A Thunderstorm Mostly Cloudy
7:09 PM 69.8 °F 51.8 °F 53% 29.85 in 6.0 mi West 32.2 mph 49.5 mph N/A Thunderstorm Haze
7:53 PM 64.0 °F 54.0 °F 70% 29.80 in 10.0 mi WNW 9.2 mph - 0.03 in Rain Light Rain
8:53 PM 62.1 °F 55.9 °F 80% 29.75 in 10.0 mi SSE 15.0 mph - 0.07 in Rain Light Rain
9:53 PM 64.9 °F 54.0 °F 68% 29.71 in 10.0 mi SE 10.4 mph - 0.00 in   Scattered Clouds
10:53 PM 62.1 °F 55.0 °F 78% 29.71 in 10.0 mi West 3.5 mph - N/A   Clear
11:53 PM 62.1 °F 55.0 °F 78% 29.70 in 10.0 mi West 5.8 mph - N/A   Clear